Keokuk, IA

11:24 AM CDT on September 29, 2016 (GMT -0500)
Keokuk Municipal

Weather History for KEOK - March, 2014

Change the Weather History Date:

Wednesday, March 26, 2014

  Actual Average Record
Temperature  
Mean Temperature 34 °F -  
Max Temperature 48 °F 54 °F 80 °F (2007)
Min Temperature 19 °F 35 °F 5 °F (1955)
Degree Days  
Heating Degree Days 32    
Moisture  
Dew Point 15 °F    
Average Humidity 53    
Maximum Humidity 74    
Minimum Humidity 25    
Precipitation  
Precipitation 0.00 in - - ()
Sea Level Pressure  
Sea Level Pressure 30.16 in    
Wind  
Wind Speed 8 mph (SSE)    
Max Wind Speed 23 mph    
Max Gust Speed 31 mph    
Visibility 10 miles    
Events      
Averages and records for this station are not official NWS values.
T = Trace of Precipitation, MM = Missing Value Source: NWS Daily Summary

Daily Weather History Graph

Daily Weather History Graph

Search for Another Location

Airport or City:

Trip Planner

Search our weather history database for the weather conditions in past years. The results will help you decide how hot, cold, wet, or windy it might be!

Date:

Astronomy

Mar. 26, 2014 Rise Set
Actual Time 6:59 AM CDT 7:24 PM CDT
Civil Twilight 6:31 AM CDT 7:51 PM CDT
Nautical Twilight 5:59 AM CDT 8:23 PM CDT
Astronomical Twilight 5:26 AM CDT 8:56 PM CDT
Moon 4:08 AM CDT (3/26) 3:02 PM CDT (3/26)
Length of Visible Light 13h 19m
Length of Day
12h 24m
Waning Crescent, 21% of the Moon is Illuminated
Mar 26
Waning Crescent
Mar 30
New
Apr 7
First Quarter
Apr 15
Full
Apr 22
Last Quarter

Hourly Weather History & Observations

Time (CDT) Temp. Windchill Dew Point Humidity Pressure Visibility Wind Dir Wind Speed Gust Speed Precip Events Conditions
12:15 AM 21.2 °F 16.4 °F 12.2 °F 68% 30.27 in 10.0 mi ESE 3.5 mph - N/A   Clear
12:35 AM 19.4 °F - 12.2 °F 74% 30.27 in 10.0 mi Calm Calm - N/A   Clear
12:55 AM 21.2 °F 14.9 °F 14.0 °F 74% 30.27 in 10.0 mi ESE 4.6 mph - N/A   Clear
1:15 AM 21.2 °F 16.4 °F 12.2 °F 68% 30.27 in 10.0 mi SE 3.5 mph - N/A   Clear
1:35 AM 19.4 °F 14.3 °F 12.2 °F 74% 30.27 in 10.0 mi SE 3.5 mph - N/A   Clear
1:55 AM 21.2 °F 14.9 °F 12.2 °F 68% 30.27 in 10.0 mi SE 4.6 mph - N/A   Clear
2:15 AM 19.4 °F 12.8 °F 12.2 °F 74% 30.27 in 10.0 mi SE 4.6 mph - N/A   Clear
2:35 AM 21.2 °F 14.9 °F 12.2 °F 68% 30.27 in 10.0 mi SSE 4.6 mph - N/A   Clear
2:55 AM 21.2 °F 14.9 °F 12.2 °F 68% 30.27 in 10.0 mi SE 4.6 mph - N/A   Clear
3:15 AM 21.2 °F 14.9 °F 12.2 °F 68% 30.26 in 10.0 mi SSE 4.6 mph - N/A   Clear
3:35 AM 19.4 °F 12.8 °F 12.2 °F 74% 30.26 in 10.0 mi SE 4.6 mph - N/A   Clear
3:55 AM 21.2 °F 13.6 °F 12.2 °F 68% 30.25 in 10.0 mi SE 5.8 mph - N/A   Clear
4:15 AM 19.4 °F 12.8 °F 12.2 °F 74% 30.25 in 10.0 mi SE 4.6 mph - N/A   Clear
4:35 AM 19.4 °F 10.4 °F 12.2 °F 74% 30.25 in 10.0 mi SE 6.9 mph - N/A   Clear
4:55 AM 19.4 °F 12.8 °F 12.2 °F 74% 30.25 in 10.0 mi SSE 4.6 mph - N/A   Clear
5:15 AM 21.2 °F 14.9 °F 12.2 °F 68% 30.26 in 10.0 mi SSE 4.6 mph - N/A   Clear
5:35 AM 21.2 °F 13.6 °F 12.2 °F 68% 30.26 in 10.0 mi SE 5.8 mph - N/A   Clear
5:55 AM 21.2 °F 12.6 °F 12.2 °F 68% 30.26 in 10.0 mi SSE 6.9 mph - N/A   Clear
6:15 AM 21.2 °F 12.6 °F 12.2 °F 68% 30.26 in 10.0 mi SSE 6.9 mph - N/A   Clear
6:35 AM 21.2 °F 11.7 °F 12.2 °F 68% 30.27 in 10.0 mi SSE 8.1 mph - N/A   Clear
6:55 AM 21.2 °F 12.6 °F 12.2 °F 68% 30.27 in 10.0 mi SSE 6.9 mph - N/A   Clear
7:15 AM 21.2 °F 12.6 °F 12.2 °F 68% 30.27 in 10.0 mi SSE 6.9 mph - N/A   Clear
7:35 AM 23.0 °F 14.7 °F 14.0 °F 68% 30.26 in 10.0 mi SSE 6.9 mph - N/A   Clear
7:55 AM 23.0 °F 13.9 °F 14.0 °F 68% 30.26 in 10.0 mi SE 8.1 mph 13.8 mph N/A   Clear
8:15 AM 24.8 °F 14.6 °F 14.0 °F 64% 30.25 in 10.0 mi SSE 10.4 mph - N/A   Clear
8:35 AM 26.6 °F 15.7 °F 14.0 °F 59% 30.25 in 10.0 mi SSE 12.7 mph - N/A   Clear
8:55 AM 28.4 °F 19.1 °F 15.8 °F 59% 30.25 in 10.0 mi SSE 10.4 mph - N/A   Clear
9:15 AM 28.4 °F 19.7 °F 15.8 °F 59% 30.24 in 10.0 mi South 9.2 mph 16.1 mph N/A   Clear
9:35 AM 30.2 °F 20.2 °F 15.8 °F 55% 30.23 in 10.0 mi South 12.7 mph 18.4 mph N/A   Clear
9:55 AM 32.0 °F 22.1 °F 15.8 °F 51% 30.22 in 10.0 mi SSE 13.8 mph - N/A   Clear
10:15 AM 33.8 °F 25.3 °F 14.0 °F 44% 30.22 in 10.0 mi SSE 11.5 mph - N/A   Clear
10:35 AM 35.6 °F 29.2 °F 15.8 °F 44% 30.22 in 10.0 mi South 8.1 mph 16.1 mph N/A   Clear
10:55 AM 37.4 °F 29.8 °F 14.0 °F 38% 30.21 in 10.0 mi SSE 11.5 mph - N/A   Clear
11:15 AM 37.4 °F 29.8 °F 12.2 °F 36% 30.20 in 10.0 mi SSE 11.5 mph 18.4 mph N/A   Clear
11:35 AM 39.2 °F 30.5 °F 12.2 °F 33% 30.19 in 10.0 mi South 16.1 mph - N/A   Scattered Clouds
11:55 AM 39.2 °F 30.5 °F 10.4 °F 31% 30.18 in 10.0 mi SSE 16.1 mph 24.2 mph N/A   Mostly Cloudy
12:15 PM 41.0 °F 32.8 °F 12.2 °F 31% 30.16 in 10.0 mi SE 16.1 mph - N/A   Overcast
12:35 PM 42.8 °F 35.8 °F 10.4 °F 27% 30.16 in 10.0 mi South 13.8 mph 26.5 mph N/A   Overcast
12:55 PM 42.8 °F 36.6 °F 12.2 °F 29% 30.15 in 10.0 mi SSE 11.5 mph 21.9 mph N/A   Mostly Cloudy
1:15 PM 44.6 °F 37.2 °F 12.2 °F 27% 30.13 in 10.0 mi SSE 17.3 mph - N/A   Mostly Cloudy
1:35 PM 44.6 °F 36.6 °F 12.2 °F 27% 30.11 in 10.0 mi SSE 19.6 mph 26.5 mph N/A   Partly Cloudy
1:55 PM 44.6 °F 38.1 °F 12.2 °F 27% 30.10 in 10.0 mi South 13.8 mph 26.5 mph N/A   Clear
2:15 PM 46.4 °F 38.7 °F 12.2 °F 25% 30.07 in 10.0 mi SSE 20.7 mph 27.6 mph N/A   Clear
2:35 PM 46.4 °F 39.5 °F 14.0 °F 27% 30.05 in 10.0 mi SSE 17.3 mph 27.6 mph N/A   Clear
2:55 PM 48.2 °F - 14.0 °F 25% 30.04 in 10.0 mi SSE 18.4 mph 25.3 mph N/A   Clear
3:35 PM 48.2 °F - 14.0 °F 25% 30.01 in 10.0 mi SSE 17.3 mph 25.3 mph N/A   Overcast
4:35 PM 48.2 °F - 15.8 °F 27% 29.97 in 10.0 mi SSE 15.0 mph 24.2 mph N/A   Overcast
5:15 PM 48.2 °F - 17.6 °F 30% 29.95 in 10.0 mi SSE 15.0 mph 20.7 mph N/A   Overcast
7:15 PM 46.4 °F 40.4 °F 19.4 °F 34% 29.93 in 10.0 mi SSE 13.8 mph - N/A   Scattered Clouds
8:55 PM 46.4 °F 41.5 °F 19.4 °F 34% 29.90 in 10.0 mi South 10.4 mph - N/A   Clear
9:55 PM 48.2 °F - 19.4 °F 32% 29.89 in 10.0 mi South 16.1 mph 23.0 mph N/A   Overcast
10:15 PM 48.2 °F - 19.4 °F 32% 29.88 in 10.0 mi South 15.0 mph 27.6 mph N/A   Overcast
10:35 PM 48.2 °F - 23.0 °F 37% 29.88 in 10.0 mi South 21.9 mph 28.8 mph N/A   Overcast
10:55 PM 44.6 °F 35.9 °F 30.2 °F 57% 29.87 in 10.0 mi South 23.0 mph 29.9 mph N/A   Overcast
11:15 PM 44.6 °F 37.2 °F 32.0 °F 61% 29.88 in 10.0 mi South 17.3 mph 25.3 mph N/A   Overcast
11:35 PM 42.8 °F 34.5 °F 32.0 °F 66% 29.87 in 10.0 mi South 18.4 mph 31.1 mph N/A   Overcast
11:55 PM 42.8 °F 34.8 °F 33.8 °F 70% 29.87 in 10.0 mi South 17.3 mph - N/A   Overcast